Tracking 28790 objects as of 19-Apr-2024
HD Live streaming from Space Station
objects crossing your sky now

COSMOS 1275 DEB

Track COSMOS 1275 DEB now!
10-day predictions


NORAD ID: 42188
Int'l Code: 1981-053TC
Perigee: 829.3 km
Apogee: 909.2 km
Inclination: 82.9 °
Period: 102.2 minutes
Semi major axis: 7240 km
RCS: Unknown
Launch date: June 4, 1981
Source: Commonwealth of Independent States (former USSR) (CIS)
Launch site: PLESETSK MISSILE AND SPACE COMPLEX (PKMTR)

Note: This is SATELLITE DEBRIS
Your satellite tracking list
Your tracking list is empty




NASA's NSSDC Master Catalog

Two Line Element Set (TLE):
1 42188U 81053TC  24109.50769196  .00007158  00000-0  40523-2 0  9996
2 42188  82.8518  38.5889 0055221 300.6790  58.8949 14.09199517180590
Source of the keplerian elements: AFSPC